Temp
87 93 87 80 68 71 70 75 87 83 83 92 93 89 84 84 78 72 95 98 98 96 93 90 83 84 84 84 84 84 84 84 85 84 84 83 84 83 83 84 84 84 84 85 85 84 85 84 84
90 93 88 77 63 65 70 84 81 86 89 92 91 88 84 78 89 90 92 98 99 99 98 94 83 84 84 83 84 84 84 84 84 83 83 84 84 84 83 84 84 84 85 85 85 85 85 84 84
92 92 75 73 63 61 69 79 85 88 91 90 84 88 83 78 90 92 98 98 100 99 99 90 83 84 84 84 83 83 84 85 84 83 84 84 84 84 84 84 84 85 85 85 85 85 84 84 84
88 83 85 70 71 79 80 83 88 87 90 90 88 79 85 91 93 97 99 100 99 101 98 86 83 84 84 84 84 83 84 84 84 84 85 83 84 84 84 84 85 85 85 85 85 84 84 84 84
85 84 73 64 73 80 81 87 87 85 87 88 89 79 80 93 99 99 98 100 99 101 97 92 84 84 83 83 83 83 84 84 84 84 84 83 84 84 85 85 85 85 85 85 85 84 84 84 84
78 88 69 63 74 82 84 85 82 84 88 88 85 82 83 94 96 97 100 101 103 101 97 93 84 83 84 84 83 83 84 84 84 84 83 83 82 83 83 85 85 85 85 85 85 84 84 84 84
79 74 68 77 75 76 81 87 83 82 87 85 91 80 86 91 97 99 100 102 102 101 97 98 96 88 84 84 84 84 84 83 83 84 83 82 84 83 83 84 84 85 85 85 85 85 84 85 84
88 85 78 76 75 74 86 85 91 85 81 96 94 79 80 92 97 100 99 99 100 100 101 93 89 90 88 85 85 84 84 84 84 83 82 83 84 84 83 82 83 85 84 84 83 85 85 85 85
94 68 70 75 78 79 88 85 91 95 90 92 92 86 91 96 97 96 94 94 97 99 101 101 95 87 91 88 87 84 84 84 84 83 83 82 81 80 83 82 82 84 85 84 84 84 85 85 85
78 70 76 92 89 85 86 87 89 88 89 88 91 91 95 90 90 92 92 92 95 96 100 99 97 93 91 95 87 87 89 88 88 88 82 85 84 79 79 83 82 83 84 85 84 83 84 84 88
93 83 91 91 94 94 90 87 92 89 82 90 87 89 89 90 91 92 93 95 96 97 99 98 96 92 90 91 90 93 94 92 91 88 87 79 76 79 79 78 79 82 83 86 89 86 89 86 84
87 91 93 92 93 93 88 92 83 77 70 94 94 93 90 89 90 90 90 95 95 96 98 97 97 92 94 94 85 88 87 86 89 92 90 87 83 79 76 76 83 87 87 85 87 80 84 85 88
91 90 92 93 94 95 94 87 84 87 93 95 94 92 91 90 91 93 95 97 97 95 96 96 95 93 94 90 94 84 92 85 85 93 85 87 88 80 77 82 82 81 86 84 89 91 90 88 90
93 90 92 93 92 93 89 88 87 87 93 91 91 90 92 92 93 91 94 96 96 96 96 97 95 93 94 90 90 89 84 90 85 85 88 85 81 79 82 85 88 91 82 83 88 88 86 89 92
93 89 93 92 92 90 91 83 82 89 92 88 88 86 92 92 92 91 96 96 97 99 97 96 96 95 93 90 92 83 92 89 88 85 87 85 80 78 82 78 88 80 84 91 90 89 90 90 89
91 92 81 90 92 91 85 76 84 90 88 83 82 86 89 89 92 90 96 97 98 98 95 96 99 97 94 92 93 84 87 82 83 83 90 82 82 86 85 82 85 82 90 85 81 88 78 81 83
90 76 81 84 93 90 86 81 85 91 90 81 82 82 87 87 90 94 97 95 97 96 93 96 96 97 95 91 89 92 89 93 82 85 83 85 88 88 83 81 87 88 86 90 87 81 80 80 85
81 83 86 84 90 91 87 84 86 90 89 80 82 83 83 84 90 94 94 96 96 95 95 96 96 94 93 92 92 91 87 83 85 89 89 88 85 88 88 83 86 87 83 83 86 85 86 82 76
88 87 85 89 92 88 87 85 85 89 89 87 82 80 83 88 94 95 92 92 94 95 94 95 94 92 92 90 89 92 89 84 87 88 90 89 88 88 88 91 88 88 84 84 86 88 84 76 78
89 87 86 89 92 89 88 86 87 88 88 89 87 83 85 89 90 91 89 93 94 93 94 93 93 92 92 94 92 93 92 96 95 90 90 87 88 89 85 88 88 87 87 85 83 79 79 80 74
88 87 87 87 90 93 89 82 83 87 90 90 92 92 91 87 89 88 90 93 94 92 93 93 92 92 91 92 93 92 91 91 92 92 89 92 91 90 87 87 87 86 86 85 85 83 83 79 78
87 93 91 89 86 61 92 51 58 85 86 88 90 92 94 91 93 91 90 91 89 93 95 94 92 91 92 91 92 89 89 85 91 93 90 92 92 91 89 85 87 85 80 78 83 87 83 84 76
88 93 92 91 89 90 86 84 74 87 82 86 90 92 94 95 93 92 91 90 92 96 95 95 92 91 92 90 89 91 88 91 95 96 91 90 89 91 91 89 87 85 88 80 81 79 84 81 78
96 93 93 93 90 55 60 86 59 83 86 88 91 94 94 96 96 97 97 94 94 98 98 96 92 90 90 91 89 87 88 90 88 92 91 86 83 83 90 90 88 86 85 81 80 84 83 78 83
94 91 65 73 71 68 87 86 72 92 95 94 92 94 95 97 95 96 96 97 96 96 96 95 91 88 89 90 89 88 88 88 88 89 93 91 95 87 87 90 88 86 87 87 87 83 81 79 83
92 92 79 68 72 79 90 76 78 97 99 100 98 97 97 97 97 96 96 97 97 97 96 91 88 87 90 89 88 89 89 91 91 92 94 95 96 97 91 91 90 88 88 87 85 83 84 86 85
91 86 97 88 89 83 72 82 92 96 96 98 97 97 96 96 98 97 98 98 97 96 96 94 91 88 89 91 89 89 89 89 93 92 94 95 94 96 93 91 89 88 86 86 83 82 86 87 86
96 99 86 88 68 68 73 78 78 87 91 94 94 94 96 97 98 98 98 97 97 98 97 96 94 91 91 93 92 92 91 90 91 91 90 90 92 92 90 90 90 88 87 85 83 84 85 84 87
91 90 92 88 80 71 74 76 96 91 92 93 96 96 96 97 99 99 99 99 97 99 98 98 96 94 93 93 94 93 93 93 91 92 91 89 90 89 88 88 88 88 88 86 79 81 82 83 83
98 92 91 83 77 78 85 74 96 97 98 96 97 98 99 98 100 101 100 99 98 97 97 97 97 96 96 95 93 95 94 93 95 92 93 93 90 89 88 87 87 87 87 88 85 82 85 83 84
MSLP
1008.42 1007.92 1007.88 1007.81 1007.62 1005.67 1003.75 1002.65 1001.86 1002.12 1002.37 1002.65 1003.26 1003.36 1004.56 1005.50 1005.95 1007.00 1008.74 1009.13 1009.89 1010.75 1012.23 1013.00 1013.64 1013.83 1013.98 1014.31 1014.45 1014.58 1014.70 1014.85 1014.92 1015.14 1015.23 1015.34 1015.40 1015.41 1015.50 1015.59 1015.69 1015.80 1015.93 1015.96 1016.09 1016.19 1016.24 1016.37 1016.50
1007.34 1006.93 1007.02 1006.51 1005.86 1004.49 1003.29 1002.43 1002.16 1002.24 1002.72 1003.42 1004.02 1004.59 1005.04 1006.27 1006.72 1007.80 1008.53 1009.41 1009.82 1010.56 1011.60 1012.67 1013.82 1014.07 1014.30 1014.58 1014.74 1014.87 1014.96 1015.10 1015.22 1015.47 1015.52 1015.61 1015.76 1015.79 1015.92 1016.02 1016.06 1016.18 1016.21 1016.37 1016.47 1016.56 1016.64 1016.78 1016.84
1007.52 1007.09 1006.93 1005.03 1003.64 1003.78 1003.24 1002.82 1002.39 1002.95 1003.44 1003.78 1004.77 1005.60 1006.30 1007.65 1007.67 1008.05 1008.94 1009.70 1009.74 1010.32 1010.96 1013.13 1013.98 1014.23 1014.50 1014.70 1014.98 1015.16 1015.17 1015.28 1015.50 1015.60 1015.89 1015.93 1016.07 1016.16 1016.33 1016.41 1016.46 1016.54 1016.62 1016.75 1016.85 1016.97 1017.05 1017.06 1017.20
1007.11 1006.96 1005.37 1003.99 1003.08 1002.54 1002.81 1002.90 1002.98 1003.32 1003.72 1004.25 1005.02 1006.26 1007.80 1007.93 1007.93 1008.41 1009.37 1009.78 1010.02 1010.12 1011.29 1013.62 1014.12 1014.42 1014.66 1014.84 1015.02 1015.25 1015.39 1015.51 1015.69 1015.93 1016.04 1016.25 1016.38 1016.51 1016.62 1016.79 1016.90 1016.90 1017.00 1017.08 1017.17 1017.36 1017.43 1017.42 1017.50
1007.00 1005.69 1004.02 1003.71 1003.18 1003.11 1003.51 1003.02 1003.42 1003.54 1003.97 1004.30 1004.85 1006.41 1007.68 1008.06 1008.28 1009.06 1009.64 1009.84 1010.05 1009.98 1012.04 1013.40 1014.32 1014.54 1014.80 1014.92 1015.19 1015.40 1015.54 1015.71 1015.80 1016.10 1016.27 1016.50 1016.60 1016.76 1016.85 1017.04 1017.18 1017.16 1017.31 1017.42 1017.49 1017.59 1017.70 1017.75 1017.86
1006.13 1003.81 1003.60 1003.61 1003.45 1003.26 1003.47 1003.99 1004.41 1003.92 1004.00 1004.84 1005.62 1006.74 1007.80 1008.59 1008.73 1009.24 1009.61 1009.61 1009.92 1010.15 1011.58 1013.22 1014.42 1014.68 1014.75 1014.90 1015.19 1015.48 1015.66 1015.86 1016.03 1016.32 1016.56 1016.82 1017.08 1017.19 1017.26 1017.24 1017.37 1017.47 1017.55 1017.57 1017.64 1017.82 1018.02 1018.18 1018.20
1004.54 1003.65 1003.32 1002.60 1003.17 1003.49 1003.66 1004.21 1004.13 1003.86 1003.88 1004.43 1005.36 1006.38 1007.95 1008.54 1008.98 1009.30 1009.45 1009.74 1009.86 1010.18 1011.24 1012.03 1013.08 1014.22 1014.67 1014.86 1015.22 1015.56 1015.76 1016.13 1016.22 1016.36 1016.58 1017.06 1017.27 1017.45 1017.55 1017.61 1017.64 1017.78 1017.91 1017.98 1018.06 1018.12 1018.26 1018.31 1018.34
1003.79 1002.53 1002.33 1002.84 1002.74 1003.35 1003.39 1004.02 1003.78 1004.08 1004.54 1004.47 1005.46 1006.42 1007.60 1008.35 1009.03 1009.34 1009.58 1009.93 1010.32 1010.46 1011.10 1012.21 1012.85 1013.56 1014.08 1014.78 1015.26 1015.69 1016.03 1016.18 1016.45 1016.71 1016.98 1017.13 1017.36 1017.64 1017.69 1017.86 1017.89 1017.99 1018.18 1018.27 1018.27 1018.33 1018.32 1018.33 1018.40
1003.53 1003.46 1002.40 1002.41 1002.23 1002.66 1003.34 1003.20 1003.84 1003.73 1004.16 1004.35 1005.32 1007.05 1007.46 1008.56 1009.10 1009.71 1010.16 1010.87 1010.74 1010.73 1010.78 1011.08 1012.32 1013.71 1014.02 1014.50 1015.38 1015.92 1016.18 1016.42 1016.64 1017.02 1017.27 1017.52 1017.69 1017.86 1017.99 1018.00 1018.06 1018.12 1018.28 1018.32 1018.33 1018.39 1018.39 1018.35 1018.43
1004.01 1002.80 1001.36 1000.79 1001.42 1001.75 1002.92 1003.01 1003.51 1003.77 1004.08 1004.77 1005.35 1007.07 1007.84 1009.60 1009.97 1009.90 1010.20 1010.60 1010.58 1010.75 1010.79 1011.46 1011.98 1013.01 1013.68 1014.12 1015.44 1015.54 1015.90 1016.16 1016.27 1016.78 1017.36 1017.38 1017.80 1018.18 1018.13 1018.12 1018.27 1018.30 1018.39 1018.42 1018.48 1018.51 1018.46 1018.32 1017.92
1000.48 1000.33 1000.45 1001.08 1001.13 1001.17 1001.91 1002.86 1003.31 1003.74 1004.53 1004.74 1005.47 1006.62 1008.39 1009.48 1009.75 1009.94 1010.24 1010.20 1010.44 1010.90 1010.93 1011.73 1012.53 1013.38 1013.69 1014.58 1015.04 1014.94 1014.92 1015.70 1016.20 1016.78 1017.10 1017.56 1017.94 1018.12 1018.33 1018.44 1018.58 1018.51 1018.46 1018.18 1018.10 1018.43 1018.10 1017.97 1018.14
1000.63 1001.12 1000.82 1001.26 1001.32 1001.20 1001.66 1002.38 1004.00 1005.04 1005.04 1004.60 1005.77 1006.85 1008.24 1009.07 1009.45 1010.32 1010.34 1010.01 1010.78 1011.10 1011.34 1012.33 1012.90 1013.79 1013.55 1014.10 1014.87 1014.88 1014.97 1015.35 1015.62 1016.08 1016.54 1017.35 1017.87 1018.20 1018.54 1018.68 1018.32 1018.12 1018.20 1018.20 1018.28 1018.69 1018.56 1018.52 1018.07
1000.12 1001.04 1001.28 1001.65 1001.18 1001.14 1001.94 1002.78 1003.87 1004.50 1004.70 1005.36 1006.13 1007.00 1007.99 1009.06 1009.36 1010.13 1009.71 1010.06 1010.94 1011.45 1011.88 1012.73 1013.52 1014.01 1014.18 1014.50 1014.56 1015.12 1014.85 1015.47 1015.85 1015.63 1016.53 1016.54 1016.94 1018.06 1018.43 1018.44 1018.40 1018.12 1017.75 1017.85 1017.31 1017.37 1017.81 1018.14 1017.73
1000.72 1001.02 1000.85 1001.48 1001.43 1001.82 1002.28 1003.04 1003.71 1004.70 1005.01 1005.37 1006.47 1007.12 1008.00 1008.51 1009.20 1009.90 1009.69 1010.10 1011.00 1011.52 1012.12 1012.92 1013.64 1014.28 1014.46 1014.80 1014.94 1015.15 1015.60 1015.38 1015.79 1016.05 1016.08 1016.94 1017.12 1017.90 1018.00 1018.05 1017.66 1017.21 1017.64 1017.51 1017.19 1017.38 1017.75 1017.74 1017.48
1000.48 999.82 999.84 1000.69 1001.18 1001.66 1002.56 1003.04 1003.77 1004.68 1005.01 1005.90 1006.98 1007.93 1007.87 1008.44 1009.38 1009.94 1009.51 1010.20 1010.85 1011.21 1012.15 1013.02 1013.51 1014.10 1014.63 1015.02 1015.04 1015.76 1015.09 1015.64 1015.83 1016.14 1016.64 1016.84 1017.68 1017.90 1017.96 1018.00 1017.12 1017.47 1017.20 1017.25 1017.46 1017.70 1017.53 1017.37 1017.33
999.28 998.39 998.33 999.75 1000.68 1001.35 1002.53 1002.78 1004.14 1004.82 1005.34 1006.58 1007.78 1007.91 1008.34 1009.00 1009.14 1010.24 1009.91 1010.29 1010.77 1011.06 1012.19 1012.97 1012.99 1013.74 1014.44 1014.76 1015.04 1015.55 1015.64 1015.86 1015.92 1016.15 1016.27 1017.09 1017.28 1017.40 1017.49 1017.71 1017.40 1017.48 1016.98 1017.40 1017.70 1017.70 1017.92 1017.68 1017.72
998.41 997.92 997.62 998.88 1000.12 1000.91 1001.52 1001.90 1003.82 1004.45 1004.89 1006.72 1007.93 1008.48 1008.62 1009.20 1009.01 1009.72 1009.88 1010.90 1011.23 1011.88 1012.67 1012.81 1013.24 1013.46 1014.24 1015.01 1015.12 1015.09 1015.50 1015.41 1016.11 1015.83 1016.26 1016.50 1016.76 1017.03 1017.24 1017.06 1017.10 1017.25 1017.02 1016.99 1017.20 1018.09 1018.17 1018.09 1017.72
997.28 996.80 997.22 997.88 999.63 1000.04 1000.32 1001.45 1003.19 1003.96 1004.50 1006.36 1007.58 1008.22 1008.68 1008.96 1008.72 1009.34 1010.10 1010.94 1011.58 1012.38 1012.78 1012.70 1013.49 1013.81 1014.45 1015.00 1015.26 1014.89 1015.22 1015.57 1016.05 1016.02 1016.16 1016.49 1016.83 1016.82 1016.48 1016.74 1017.02 1017.00 1017.28 1017.23 1017.00 1017.66 1017.99 1017.97 1017.87
997.97 997.46 997.28 997.86 998.96 999.31 999.52 1000.98 1002.59 1003.56 1004.18 1005.06 1006.55 1007.76 1007.91 1007.98 1008.30 1009.28 1010.60 1011.58 1011.96 1012.11 1012.45 1012.78 1013.34 1013.88 1014.66 1015.03 1015.10 1014.68 1014.78 1015.10 1015.49 1015.58 1016.11 1016.37 1016.54 1016.51 1016.44 1016.20 1016.65 1016.97 1017.26 1017.52 1017.43 1017.42 1017.56 1018.07 1018.06
997.39 996.96 996.87 997.82 998.57 998.98 999.53 1000.51 1002.41 1003.34 1003.74 1004.17 1005.28 1006.51 1006.88 1007.22 1008.29 1009.40 1010.85 1010.85 1011.36 1012.01 1012.23 1012.82 1013.27 1014.00 1014.60 1014.48 1014.84 1014.89 1014.95 1014.82 1014.93 1015.40 1015.89 1016.31 1016.34 1016.42 1016.72 1016.37 1016.49 1016.66 1017.03 1017.34 1017.67 1017.64 1017.74 1018.14 1018.53
996.84 996.16 996.50 996.64 997.70 998.49 999.19 1000.38 1002.13 1002.90 1003.41 1003.74 1004.08 1004.98 1005.93 1006.88 1007.63 1009.16 1010.11 1010.08 1010.60 1011.42 1012.01 1012.70 1013.46 1013.93 1014.60 1014.73 1015.00 1015.28 1015.56 1015.50 1015.23 1015.28 1015.58 1015.67 1015.93 1016.11 1016.48 1016.54 1016.43 1016.57 1016.85 1016.93 1017.17 1017.52 1017.56 1017.86 1018.65
995.74 996.59 996.48 996.47 997.02 999.69 998.87 1001.45 1003.11 1001.84 1002.39 1002.85 1003.31 1003.92 1004.45 1005.85 1007.00 1007.96 1009.07 1009.55 1010.60 1010.67 1011.63 1012.36 1013.21 1013.82 1014.38 1014.80 1014.56 1014.96 1014.94 1014.82 1014.81 1014.82 1015.00 1015.36 1015.74 1015.95 1016.16 1016.28 1016.20 1016.42 1016.88 1017.02 1016.98 1017.07 1017.52 1017.42 1018.04
996.52 996.70 996.26 996.19 996.02 996.21 997.47 997.36 1000.86 1000.75 1001.36 1001.73 1002.08 1002.87 1003.67 1004.50 1005.93 1007.09 1008.19 1009.14 1009.84 1009.91 1010.96 1011.87 1012.75 1013.43 1013.83 1014.50 1014.95 1014.92 1015.12 1014.47 1014.34 1014.58 1015.12 1015.40 1015.70 1015.60 1015.67 1015.94 1016.06 1016.13 1016.54 1016.90 1016.91 1016.99 1017.10 1017.41 1017.67
996.63 996.12 995.89 995.79 995.71 998.66 999.64 997.64 999.62 998.67 999.54 1000.29 1001.05 1001.74 1002.79 1003.74 1004.83 1005.64 1006.66 1007.80 1008.71 1008.90 1009.88 1010.98 1012.06 1012.94 1013.64 1014.16 1014.71 1015.12 1015.09 1014.80 1014.71 1014.71 1014.87 1014.69 1014.87 1015.33 1015.36 1015.68 1015.90 1016.15 1016.41 1016.62 1016.72 1016.54 1017.00 1017.40 1017.26
996.04 995.04 996.47 995.36 995.94 997.22 996.37 995.80 997.70 997.25 997.51 998.62 999.65 1000.69 1002.05 1003.10 1004.40 1005.16 1005.60 1006.44 1007.50 1008.30 1009.38 1010.51 1011.54 1012.49 1013.25 1013.76 1014.23 1014.68 1015.00 1015.07 1014.96 1014.96 1014.40 1014.40 1014.13 1014.78 1015.00 1015.46 1015.65 1015.88 1015.85 1015.88 1015.87 1016.57 1017.21 1017.27 1017.05
994.86 994.26 994.32 993.78 994.24 995.16 995.40 996.00 997.11 996.38 996.79 997.44 998.78 1000.10 1001.42 1002.48 1003.48 1004.65 1005.41 1006.17 1006.90 1007.76 1008.88 1010.55 1011.56 1012.08 1012.66 1013.34 1013.72 1014.18 1014.51 1014.52 1014.53 1014.52 1014.22 1014.02 1013.87 1013.88 1014.76 1015.05 1015.24 1015.39 1015.54 1015.82 1016.20 1016.45 1016.76 1016.48 1016.52
994.18 994.25 993.42 993.26 993.24 994.28 996.33 996.72 996.23 996.18 996.60 997.15 998.37 999.56 1000.80 1001.90 1002.74 1003.98 1004.88 1005.72 1006.48 1007.38 1008.25 1009.31 1010.46 1011.60 1012.27 1012.66 1013.32 1013.64 1013.91 1014.10 1013.62 1013.82 1013.93 1014.12 1014.26 1014.21 1014.48 1014.95 1015.16 1015.26 1015.47 1015.68 1016.14 1016.29 1016.01 1015.93 1015.95
994.33 994.31 993.62 993.60 995.04 994.87 996.10 996.11 996.08 996.37 996.42 997.07 998.20 999.29 1000.34 1001.38 1002.17 1003.28 1004.17 1005.19 1006.10 1006.94 1007.97 1008.85 1009.80 1010.66 1011.46 1011.99 1012.38 1012.76 1013.07 1013.47 1013.71 1013.83 1013.97 1014.12 1014.17 1014.31 1014.52 1014.75 1014.86 1015.09 1015.27 1015.55 1015.78 1015.86 1015.79 1015.72 1015.58
994.26 993.98 993.63 994.41 995.45 995.02 994.28 995.79 995.26 996.11 996.57 996.86 997.68 998.97 1000.05 1001.06 1001.73 1002.68 1003.55 1004.63 1005.72 1006.53 1007.34 1008.29 1009.18 1010.00 1010.78 1011.32 1011.42 1011.85 1012.22 1012.56 1013.14 1013.26 1013.57 1013.92 1014.14 1014.37 1014.52 1014.69 1014.69 1014.63 1014.67 1015.03 1015.56 1015.67 1015.42 1015.15 1015.27
993.51 993.31 993.62 993.23 994.52 994.65 994.28 996.62 996.89 996.18 996.41 997.18 997.51 998.44 999.67 1000.70 1001.38 1002.18 1003.11 1004.15 1005.21 1006.09 1006.74 1007.57 1008.33 1009.13 1009.79 1010.30 1010.94 1011.10 1011.68 1012.01 1012.12 1012.73 1012.97 1013.26 1013.60 1014.00 1014.32 1014.55 1014.57 1014.51 1014.49 1014.38 1014.68 1014.96 1014.72 1014.82 1014.60
Wind_Speed
12 14 9 3 4 4 4 13 14 16 11 10 11 6 15 16 11 7 19 15 18 18 17 13 11 11 10 10 9 9 9 9 6 10 9 10 11 12 12 14 14 16 17 16 17 16 16 18 17
9 9 4 5 3 7 9 16 14 12 14 14 10 8 7 14 9 18 15 19 17 18 16 15 10 10 10 9 8 8 9 8 7 9 10 10 11 12 12 14 14 14 15 15 15 16 15 17 16
14 5 4 6 4 2 9 8 16 17 14 12 9 10 9 5 18 16 18 18 16 16 17 17 12 10 9 9 7 7 8 9 9 8 11 10 11 13 13 14 14 14 14 14 14 15 14 15 16
3 4 9 3 7 15 15 11 14 18 12 3 13 10 9 2 14 19 19 16 15 14 21 16 12 9 8 9 8 8 7 8 9 8 10 10 11 12 13 11 13 13 13 13 14 13 14 13 15
5 6 7 6 11 18 10 13 10 13 9 8 5 9 11 14 13 20 18 14 14 16 17 15 11 10 7 6 6 7 9 8 8 9 11 10 12 11 12 13 11 12 12 12 13 13 13 12 12
6 4 3 7 10 16 8 13 7 7 11 11 14 16 10 11 19 17 16 15 12 14 17 15 11 8 7 7 7 9 9 9 8 10 13 12 9 10 9 11 10 9 11 11 11 11 9 9 10
10 5 8 11 13 12 11 7 5 4 11 8 12 10 13 18 18 17 14 13 11 16 13 15 16 11 8 6 6 9 9 8 10 13 19 13 10 10 10 10 9 11 10 11 9 9 7 5 7
12 5 12 11 10 12 11 10 11 7 5 11 17 6 19 20 19 17 13 13 9 11 9 15 10 11 8 7 10 10 10 10 13 16 17 15 12 13 12 11 9 7 10 9 8 7 5 5 8
5 3 1 11 10 10 17 10 11 7 11 7 6 18 20 22 18 16 13 9 8 8 9 11 15 7 13 11 12 11 12 13 16 15 15 12 6 6 9 9 8 6 6 8 7 4 6 10 11
9 3 7 8 19 9 13 8 9 11 12 11 17 22 23 17 15 18 15 13 13 11 9 8 14 13 10 13 10 9 11 8 9 11 8 6 8 4 4 6 6 2 7 8 7 3 5 8 7
6 9 8 8 11 8 10 12 9 13 6 14 20 25 23 23 18 14 15 14 14 10 8 14 9 12 9 11 10 6 7 9 8 9 10 4 4 4 3 2 1 0 7 5 8 2 2 6 4
2 7 8 8 2 8 6 10 12 16 11 10 17 22 23 21 18 14 12 13 14 11 9 12 9 8 7 9 5 5 2 4 4 10 10 8 6 4 3 2 3 7 6 6 7 4 3 1 2
6 6 5 5 4 11 2 16 4 7 4 14 17 21 22 20 17 18 14 14 12 12 11 11 11 6 7 2 5 4 4 3 6 7 5 2 9 4 4 4 4 6 4 6 6 6 6 8 8
3 3 3 9 5 7 7 7 6 6 6 15 16 17 19 21 18 13 13 13 13 12 12 14 12 9 9 6 5 5 2 4 6 2 3 9 4 5 5 7 8 5 5 5 3 4 5 5 5
5 11 13 14 8 8 9 9 8 7 9 13 16 13 18 15 21 18 14 14 13 12 12 13 14 11 8 12 8 2 3 4 3 4 5 5 7 6 5 3 5 4 4 1 3 3 5 6 4
14 15 15 14 9 5 15 11 9 8 12 13 14 14 14 13 19 13 13 14 12 11 11 12 11 14 9 8 4 2 1 5 4 6 6 8 7 9 8 6 6 4 3 2 3 3 4 1 2
13 15 17 13 8 6 9 11 11 9 13 13 13 13 14 17 18 19 14 12 15 10 8 12 8 9 10 9 4 4 6 3 6 3 6 6 7 7 6 3 4 4 3 6 4 2 2 3 4
3 4 8 12 11 12 6 12 13 11 9 18 16 15 15 15 18 17 16 13 9 14 13 11 9 9 6 9 1 3 4 4 7 5 4 5 3 5 7 6 6 6 3 3 3 4 3 4 8
3 6 2 8 8 9 6 14 13 12 11 19 15 18 17 21 15 17 10 15 15 15 13 11 11 12 7 5 6 4 3 3 5 5 5 4 4 5 3 4 5 4 3 4 4 5 7 3 7
4 7 7 7 8 12 9 12 12 13 12 12 19 18 18 19 19 16 16 17 17 14 14 12 10 9 7 8 5 2 2 1 4 6 6 6 4 2 2 3 5 6 6 6 5 3 1 2 3
3 3 7 9 13 15 10 9 11 14 12 14 14 20 19 15 22 20 19 18 16 18 14 13 11 9 8 5 3 4 2 3 5 6 5 5 4 5 4 5 4 5 4 4 4 5 5 4 3
12 4 4 7 12 8 18 6 27 18 17 16 16 15 18 24 18 18 21 18 14 15 15 14 13 11 10 8 5 4 4 4 6 3 5 4 4 3 5 4 4 4 2 3 4 4 3 4 3
8 3 7 9 13 9 10 6 17 19 17 17 16 18 17 18 24 20 21 18 19 20 17 14 14 13 10 11 7 6 6 3 4 2 3 3 6 5 4 2 2 3 2 0 3 3 6 4 4
5 10 11 11 8 9 25 9 17 7 15 17 17 18 18 18 18 21 22 23 19 17 18 17 16 13 12 9 9 8 5 5 4 3 4 4 4 5 5 3 3 2 3 5 5 8 4 4 4
9 14 4 6 2 10 16 4 16 12 11 19 19 19 17 17 18 18 19 19 20 20 16 13 12 14 13 12 11 11 10 9 7 5 7 5 3 5 8 5 5 6 7 6 5 3 5 6 6
11 16 7 5 6 4 4 12 6 11 5 17 18 17 18 17 18 19 18 18 19 18 21 18 17 12 15 14 13 10 10 9 9 9 7 6 5 2 6 3 5 6 5 5 4 1 7 8 7
5 8 12 14 3 5 7 10 12 10 10 14 17 18 18 18 17 17 18 18 17 18 18 19 16 15 14 16 12 12 11 12 9 8 7 6 7 6 6 5 7 7 8 7 5 5 8 6 7
17 11 6 5 4 6 3 11 10 9 11 12 17 16 17 17 17 17 16 17 16 17 17 17 17 16 15 15 14 13 13 12 11 10 9 8 8 6 6 7 8 9 9 8 8 8 9 9 7
10 13 12 9 12 11 8 5 10 8 12 13 16 17 17 16 16 16 15 16 15 15 17 17 17 17 16 15 14 13 12 13 13 12 10 10 9 8 8 8 9 10 11 11 7 8 10 10 10
11 7 17 8 10 16 4 7 10 5 12 11 11 17 18 17 16 16 15 15 15 14 15 16 17 16 16 15 13 13 13 12 12 12 11 10 9 8 8 9 10 11 11 10 11 10 10 11 12
Wind_Direction
195 207 212 197 236 219 106 98 102 110 108 110 92 91 68 28 27 53 139 137 136 132 127 143 131 127 119 124 124 123 120 114 102 91 95 95 92 97 101 102 106 106 104 105 97 95 94 93 90
246 206 251 258 257 125 92 110 120 99 113 106 101 104 83 59 79 123 130 132 142 129 144 135 130 133 127 121 114 112 113 114 109 107 98 93 93 97 101 106 107 112 107 103 100 96 93 92 94
254 260 250 219 138 122 120 98 96 114 120 111 84 51 38 69 117 130 128 139 132 141 125 115 138 141 142 132 128 117 114 100 106 105 107 99 101 102 101 103 107 108 107 106 102 94 92 94 96
231 262 254 288 87 100 114 122 119 134 113 79 121 89 98 132 134 120 134 144 132 147 101 120 136 140 135 140 146 139 120 107 105 115 112 108 107 103 101 102 109 104 107 110 106 101 100 97 99
262 241 268 166 98 101 118 115 122 143 145 136 115 91 108 139 121 132 138 149 147 119 116 128 135 142 137 141 150 143 141 131 120 120 115 115 112 108 109 110 108 112 112 113 108 103 100 104 100
260 254 298 112 111 111 110 101 128 150 137 104 109 120 120 135 137 140 150 142 151 127 121 133 135 146 144 152 166 150 155 142 119 117 101 91 92 107 108 107 111 105 105 111 110 109 106 105 106
254 230 173 128 120 119 117 133 112 142 132 127 132 110 127 150 145 148 155 141 145 124 140 139 142 141 154 146 154 151 149 143 128 125 113 120 120 101 97 99 114 121 114 115 116 112 114 121 131
274 282 74 68 116 119 129 131 117 111 131 116 128 159 152 147 151 152 141 120 143 118 131 122 73 140 114 144 139 140 135 133 126 125 125 124 111 107 95 79 106 120 126 124 114 110 118 133 149
254 287 247 95 70 123 121 142 133 113 129 128 95 132 144 144 153 134 139 145 154 143 147 131 120 162 113 117 123 130 129 122 126 126 132 127 111 103 111 108 88 131 146 128 121 128 129 124 128
107 165 188 47 123 152 152 121 131 152 136 127 115 143 133 122 156 162 150 163 158 139 160 120 128 98 132 108 124 132 143 124 128 135 137 158 139 115 141 135 106 109 162 146 136 143 166 182 149
337 53 82 66 19 117 122 111 185 152 153 141 132 143 143 156 170 166 158 175 143 157 121 107 98 119 134 126 159 141 158 146 134 141 160 133 115 146 129 107 156 216 187 183 174 180 101 309 92
198 47 32 80 356 117 126 162 115 71 248 131 137 149 155 158 163 159 202 157 138 141 138 108 120 112 120 130 196 123 107 142 142 142 168 144 148 162 134 162 199 191 184 202 155 178 195 324 167
318 89 143 103 217 104 142 108 265 87 176 127 135 152 159 167 160 164 196 145 153 142 128 131 125 132 109 154 119 109 129 59 142 161 169 161 138 148 155 219 202 239 169 165 207 157 169 182 200
46 147 140 151 132 109 120 127 143 88 152 131 146 156 161 182 157 164 183 153 156 160 147 128 142 140 135 93 72 88 51 141 85 89 120 143 60 140 175 188 203 221 181 235 180 155 158 211 173
217 165 155 147 177 147 103 136 89 110 147 146 144 170 169 175 148 187 168 154 171 170 153 146 141 145 157 130 170 147 206 112 124 60 119 59 124 178 203 260 243 316 127 105 202 225 219 211 206
213 209 147 139 165 138 167 108 131 143 145 134 163 186 165 169 163 189 155 175 148 169 160 163 156 149 161 123 148 60 230 13 122 183 160 167 169 185 179 186 248 247 198 198 184 222 298 232 321
149 265 136 126 193 149 224 127 148 174 147 153 156 186 168 185 176 179 162 139 188 117 175 174 154 161 152 130 137 170 156 147 6 46 96 153 159 174 189 179 178 216 218 217 180 134 273 276 236
26 93 88 127 160 221 181 105 155 175 164 150 172 177 181 196 182 161 164 159 160 162 192 188 167 139 147 132 151 236 155 137 171 107 138 132 169 184 220 143 161 220 273 327 252 156 218 246 247
295 285 171 124 140 206 231 131 163 175 167 152 172 170 197 190 167 164 123 174 165 197 181 192 176 144 166 177 196 188 205 159 159 142 134 153 181 188 199 160 166 192 232 223 261 217 200 71 8
207 208 154 121 170 242 148 141 164 178 176 175 161 187 193 177 171 162 181 212 173 198 188 190 191 177 199 175 187 234 345 105 12 106 146 182 207 219 259 217 179 186 202 214 227 267 41 98 54
191 335 145 161 192 222 141 129 178 177 183 170 181 184 177 191 171 173 192 208 180 186 189 190 195 186 191 248 200 143 353 216 204 176 162 167 197 194 214 226 206 197 219 218 202 216 222 190 176
100 25 249 208 214 121 229 161 260 180 187 180 180 192 185 175 199 175 193 199 186 192 186 191 192 198 185 197 239 129 275 311 55 212 106 182 187 209 205 224 232 222 230 227 230 205 192 218 163
56 269 252 234 257 231 189 247 198 170 186 182 189 180 194 187 179 193 188 191 189 200 181 191 192 198 212 179 242 186 233 241 202 83 99 211 184 216 223 220 238 259 182 284 197 249 194 196 168
311 236 228 222 243 35 234 297 5 209 188 188 186 181 188 187 196 190 189 179 199 197 182 186 190 196 193 206 190 224 282 290 331 74 312 210 150 182 167 186 207 190 187 197 215 213 222 171 218
237 240 241 214 163 234 223 207 179 184 172 175 179 181 182 184 188 202 195 191 191 192 194 171 206 188 200 199 205 202 214 224 245 234 243 17 265 161 143 180 200 197 211 190 215 186 197 218 227
200 285 260 293 345 148 226 122 256 100 115 155 166 175 174 182 180 194 203 199 191 198 187 182 199 209 200 203 210 208 213 221 219 219 259 274 309 315 117 183 211 231 212 217 192 177 237 216 218
234 251 309 295 199 230 123 280 116 119 138 149 162 169 172 179 179 187 190 198 203 196 200 190 183 195 212 209 210 214 209 227 228 238 216 225 246 258 219 216 230 217 225 220 206 227 241 246 224
271 342 262 337 357 10 312 319 78 147 152 166 159 176 172 177 181 178 187 190 192 197 201 201 195 195 202 215 205 210 210 215 226 239 231 253 280 284 275 261 229 228 234 234 220 228 242 250 245
198 230 226 170 174 243 227 118 71 133 155 166 170 180 173 180 179 178 184 178 183 195 191 199 200 198 206 211 218 207 211 215 213 229 221 229 240 242 241 244 248 243 234 224 222 237 261 227 240
311 323 279 242 312 342 54 93 25 79 143 159 184 175 173 182 180 179 175 171 175 190 187 193 193 199 203 207 212 216 213 229 219 220 232 229 231 232 226 238 247 250 258 246 231 231 239 237 245